Colby, KS

1:39 AM CST on February 10, 2016 (GMT -0600)
Shaltz

Weather History for KCBK - June, 2013

Change the Weather History Date:

Thursday, June 27, 2013

  Actual Average (KGLD) Record (KGLD)
Temperature  
Mean Temperature 84 °F 73 °F  
Max Temperature 98 °F 88 °F 110 °F (2012)
Min Temperature 69 °F 59 °F 43 °F (1985)
Degree Days  
Heating Degree Days 0 0  
Month to date heating degree days 36  
Since 1 June heating degree days 36  
Since 1 July heating degree days 5902  
Cooling Degree Days 18 9  
Month to date cooling degree days 152  
Year to date cooling degree days 193  
Since 1 June cooling degree days 152  
Growing Degree Days 34 (Base 50)    
Moisture  
Dew Point 64 °F    
Average Humidity 53    
Maximum Humidity 88    
Minimum Humidity 29    
Precipitation  
Precipitation 0.00 in 0.10 in 1.42 in (1948)
Month to date precipitation 2.94  
Year to date precipitation 9.42  
Snow  
Snow 0.00 in 0.00 in - ()
Month to date snowfall 0.0  
Since 1 June snowfall 0.0  
Since 1 July snowfall 35.5  
Snow Depth -    
Sea Level Pressure  
Sea Level Pressure 30.05 in    
Wind  
Wind Speed 11 mph (NW)    
Max Wind Speed 24 mph    
Max Gust Speed 37 mph    
Visibility 10 miles    
Events      
T = Trace of Precipitation, MM = Missing Value Source: NWS Daily Summary

Daily Weather History Graph

Daily Weather History Graph

Search for Another Location

Airport or City:

Trip Planner

Search our weather history database for the weather conditions in past years. The results will help you decide how hot, cold, wet, or windy it might be!

Date:

Astronomy

Jun. 27, 2013 Rise Set
Actual Time 6:19 AM CDT 9:15 PM CDT
Civil Twilight 5:46 AM CDT 9:47 PM CDT
Nautical Twilight 5:05 AM CDT 10:28 PM CDT
Astronomical Twilight 4:18 AM CDT 11:15 PM CDT
Moon No Moon Rise 11:20 AM CDT (6/27)
Length of Visible Light 16h 00m
Length of Day
14h 56m
Waning Gibbous, 76% of the Moon is Illuminated
Jun 27
Waning Gibbous
Jun 29
Last Quarter
Jul 8
New
Jul 15
First Quarter
Jul 22
Full

Hourly Weather History & Observations

Time (CDT) Temp. Heat Index Dew Point Humidity Pressure Visibility Wind Dir Wind Speed Gust Speed Precip Events Conditions
12:15 AM 82.4 °F 82.5 °F 59.0 °F 45% 30.00 in 10.0 mi SSE 11.5 mph 18.4 mph N/A   Clear
12:35 AM 80.6 °F 81.1 °F 59.0 °F 48% 30.00 in 10.0 mi SSE 10.4 mph - N/A   Clear
12:55 AM 80.6 °F 81.1 °F 59.0 °F 48% 30.00 in 10.0 mi South 10.4 mph - N/A   Clear
1:15 AM 80.6 °F 81.5 °F 60.8 °F 51% 30.00 in 10.0 mi South 9.2 mph - N/A   Clear
1:35 AM 80.6 °F 81.5 °F 60.8 °F 51% 30.00 in 10.0 mi South 9.2 mph - N/A   Clear
1:55 AM 80.6 °F 81.8 °F 62.6 °F 54% 30.00 in 10.0 mi South 8.1 mph - N/A   Clear
2:15 AM 80.6 °F 81.8 °F 62.6 °F 54% 30.00 in 10.0 mi South 9.2 mph - N/A   Clear
2:35 AM 80.6 °F 81.8 °F 62.6 °F 54% 29.99 in 10.0 mi South 10.4 mph 17.3 mph N/A   Clear
2:55 AM 78.8 °F - 62.6 °F 57% 30.00 in 10.0 mi South 10.4 mph - N/A   Clear
3:15 AM 78.8 °F - 64.4 °F 61% 29.99 in 10.0 mi South 9.2 mph - N/A   Clear
3:35 AM 77.0 °F - 64.4 °F 65% 29.99 in 10.0 mi SSW 9.2 mph - N/A   Clear
3:55 AM 77.0 °F - 64.4 °F 65% 29.99 in 10.0 mi SSW 9.2 mph - N/A   Clear
4:15 AM 73.4 °F - 64.4 °F 73% 29.99 in 10.0 mi SSW 6.9 mph - N/A   Clear
4:35 AM 71.6 °F - 64.4 °F 78% 29.99 in 10.0 mi SSW 5.8 mph - N/A   Clear
4:55 AM 71.6 °F - 64.4 °F 78% 29.99 in 10.0 mi SSW 6.9 mph - N/A   Clear
5:15 AM 71.6 °F - 64.4 °F 78% 29.99 in 10.0 mi SSW 6.9 mph - N/A   Clear
5:35 AM 71.6 °F - 64.4 °F 78% 29.99 in 10.0 mi SSW 6.9 mph - N/A   Clear
5:55 AM 71.6 °F - 66.2 °F 83% 29.99 in 10.0 mi SSW 6.9 mph - N/A   Clear
6:15 AM 71.6 °F - 66.2 °F 83% 29.99 in 10.0 mi SSW 6.9 mph - N/A   Clear
6:35 AM 69.8 °F - 66.2 °F 88% 29.99 in 10.0 mi SW 5.8 mph - N/A   Clear
6:55 AM 71.6 °F - 66.2 °F 83% 29.99 in 10.0 mi SSW 6.9 mph - N/A   Clear
7:15 AM 71.6 °F - 68.0 °F 88% 29.99 in 10.0 mi SW 6.9 mph - N/A   Clear
7:35 AM 73.4 °F - 68.0 °F 83% 29.99 in 10.0 mi SW 5.8 mph - N/A   Clear
7:55 AM 77.0 °F - 68.0 °F 74% 30.00 in 10.0 mi SW 9.2 mph - N/A   Clear
8:15 AM 78.8 °F - 68.0 °F 69% 30.00 in 10.0 mi SW 8.1 mph - N/A   Clear
8:35 AM 80.6 °F 83.2 °F 68.0 °F 65% 30.00 in 10.0 mi SSW 9.2 mph - N/A   Clear
8:55 AM 82.4 °F 85.4 °F 68.0 °F 62% 30.03 in 10.0 mi WNW 9.2 mph - N/A   Clear
9:15 AM 86.0 °F 89.4 °F 68.0 °F 55% 30.02 in 10.0 mi West 10.4 mph 17.3 mph N/A   Clear
9:35 AM 86.0 °F 88.2 °F 66.2 °F 51% 30.03 in 10.0 mi West 8.1 mph - N/A   Clear
9:55 AM 87.8 °F 90.4 °F 66.2 °F 49% 30.03 in 10.0 mi WNW 9.2 mph - N/A   Clear
10:15 AM 87.8 °F 90.4 °F 66.2 °F 49% 30.03 in 10.0 mi WNW 9.2 mph - N/A   Clear
10:35 AM 89.6 °F 91.1 °F 64.4 °F 43% 30.03 in 10.0 mi West 10.4 mph - N/A   Clear
10:55 AM 91.4 °F 93.2 °F 64.4 °F 41% 30.03 in 10.0 mi West 10.4 mph - N/A   Clear
11:15 AM 96.8 °F 99.0 °F 64.4 °F 34% 30.03 in 10.0 mi WNW 10.4 mph - N/A   Clear
11:35 AM 96.8 °F 98.0 °F 62.6 °F 32% 30.03 in 10.0 mi WNW 12.7 mph 18.4 mph N/A   Clear
11:55 AM 98.6 °F 99.4 °F 60.8 °F 29% 30.04 in 10.0 mi NW 17.3 mph 20.7 mph N/A   Clear
12:15 PM 96.8 °F 97.1 °F 60.8 °F 30% 30.04 in 10.0 mi NNW 16.1 mph 21.9 mph N/A   Clear
12:35 PM 95.0 °F 94.4 °F 59.0 °F 30% 30.06 in 10.0 mi NNW 18.4 mph 24.2 mph N/A   Clear
12:55 PM 95.0 °F 94.4 °F 59.0 °F 30% 30.07 in 10.0 mi North 15.0 mph 23.0 mph N/A   Clear
1:15 PM 95.0 °F 95.2 °F 60.8 °F 32% 30.07 in 10.0 mi NNW 17.3 mph 23.0 mph N/A   Clear
1:35 PM 95.0 °F 96.0 °F 62.6 °F 34% 30.07 in 10.0 mi NNW 17.3 mph 24.2 mph N/A   Clear
1:55 PM 95.0 °F 97.0 °F 64.4 °F 36% 30.07 in 10.0 mi North 20.7 mph 27.6 mph N/A   Clear
2:15 PM 95.0 °F 97.0 °F 64.4 °F 36% 30.07 in 10.0 mi North 17.3 mph 27.6 mph N/A   Clear
2:35 PM 95.0 °F 97.0 °F 64.4 °F 36% 30.07 in 10.0 mi North 20.7 mph 28.8 mph N/A   Clear
2:55 PM 96.8 °F 99.0 °F 64.4 °F 34% 30.07 in 10.0 mi North 20.7 mph 26.5 mph N/A   Clear
3:15 PM 96.8 °F 99.0 °F 64.4 °F 34% 30.07 in 10.0 mi North 21.9 mph 27.6 mph N/A   Clear
3:35 PM 96.8 °F 99.0 °F 64.4 °F 34% 30.06 in 10.0 mi North 24.2 mph 29.9 mph N/A   Clear
3:55 PM 96.8 °F 99.0 °F 64.4 °F 34% 30.06 in 10.0 mi North 18.4 mph 28.8 mph N/A   Clear
4:15 PM 95.0 °F 96.0 °F 62.6 °F 34% 30.06 in 10.0 mi North 18.4 mph 29.9 mph N/A   Clear
4:35 PM 95.0 °F 96.0 °F 62.6 °F 34% 30.06 in 10.0 mi North 23.0 mph 28.8 mph N/A   Clear
4:55 PM 95.0 °F 96.0 °F 62.6 °F 34% 30.05 in 10.0 mi North 19.6 mph 27.6 mph N/A   Clear
5:15 PM 95.0 °F 96.0 °F 62.6 °F 34% 30.04 in 10.0 mi North 17.3 mph 31.1 mph N/A   Clear
5:35 PM 95.0 °F 96.0 °F 62.6 °F 34% 30.04 in 10.0 mi North 20.7 mph 28.8 mph N/A   Clear
5:55 PM 95.0 °F 96.0 °F 62.6 °F 34% 30.05 in 10.0 mi North 19.6 mph 24.2 mph N/A   Clear
6:15 PM 93.2 °F 94.1 °F 62.6 °F 36% 30.05 in 10.0 mi NNE 19.6 mph 36.8 mph N/A   Clear
6:35 PM 91.4 °F 92.1 °F 62.6 °F 38% 30.07 in 10.0 mi North 18.4 mph 29.9 mph N/A   Clear
6:55 PM 91.4 °F 91.4 °F 60.8 °F 36% 30.09 in 10.0 mi NNE 19.6 mph 28.8 mph N/A   Clear
7:15 PM 91.4 °F 92.1 °F 62.6 °F 38% 30.08 in 10.0 mi NE 16.1 mph 23.0 mph N/A   Clear
7:35 PM 89.6 °F 90.1 °F 62.6 °F 40% 30.08 in 10.0 mi NNE 17.3 mph 27.6 mph N/A   Clear
7:55 PM 89.6 °F 90.1 °F 62.6 °F 40% 30.09 in 10.0 mi NE 17.3 mph 24.2 mph N/A   Clear
8:15 PM 87.8 °F 88.5 °F 62.6 °F 43% 30.09 in 10.0 mi NNE 17.3 mph 23.0 mph N/A   Clear
8:35 PM 86.0 °F 87.3 °F 64.4 °F 48% 30.08 in 10.0 mi NE 13.8 mph 20.7 mph N/A   Clear
8:55 PM 84.2 °F 85.0 °F 62.6 °F 48% 30.09 in 10.0 mi NE 15.0 mph - N/A   Clear
9:15 PM 82.4 °F 83.9 °F 64.4 °F 54% 30.11 in 10.0 mi NE 11.5 mph - N/A   Clear
9:35 PM 80.6 °F 82.3 °F 64.4 °F 58% 30.12 in 10.0 mi ENE 9.2 mph - N/A   Clear
9:55 PM 78.8 °F - 66.2 °F 65% 30.12 in 10.0 mi ENE 10.4 mph - N/A   Clear
10:15 PM 77.0 °F - 66.2 °F 69% 30.14 in 10.0 mi ENE 9.2 mph - N/A   Clear
10:35 PM 75.2 °F - 66.2 °F 73% 30.16 in 10.0 mi ENE 4.6 mph - N/A   Clear
10:55 PM 75.2 °F - 66.2 °F 73% 30.18 in 10.0 mi Calm Calm - N/A   Clear
11:15 PM 73.4 °F - 66.2 °F 78% 30.19 in 10.0 mi ENE 4.6 mph - N/A   Clear
11:35 PM 71.6 °F - 66.2 °F 83% 30.19 in 10.0 mi ENE 3.5 mph - N/A   Clear
11:55 PM 69.8 °F - 64.4 °F 83% 30.19 in 10.0 mi East 3.5 mph - N/A   Clear